Location: Unspecified
(0.0000°N, 0.0000°E)
Time: 20:22:34
(UTC+00:00)

STARLINK-1642 - Visible Passes

Search period start: 12 January 2025 00:00
Search period end: 22 January 2025 00:00
Orbit: 546 x 548 km, 53.1° (Epoch: 12 January)

Date Brightness Start Highest point End Pass type
(mag) Time Alt. Az. Time Alt. Az. Time Alt. Az.
12 Jan 5.7 19:37:18 10° WSW 19:40:32 22° NW 19:42:41 15° NNW visible
13 Jan 6.2 19:31:54 10° W 19:34:12 15° NW 19:36:30 10° NNW visible
15 Jan 4.3 05:41:14 10° NNW 05:45:15 55° ENE 05:49:18 10° SE visible
16 Jan 3.6 05:34:42 10° NW 05:38:48 90° N 05:42:57 10° SE visible
17 Jan 3.8 05:28:27 11° NW 05:32:20 56° WSW 05:36:23 10° SSE visible
18 Jan 6.6 03:47:23 11° ENE 03:47:23 11° ENE 03:47:58 10° ENE visible
18 Jan 4.4 05:23:01 16° WNW 05:25:51 35° SW 05:29:37 10° S visible
19 Jan 6.5 03:41:54 14° E 03:41:54 14° E 03:42:50 10° E visible
19 Jan 5.0 05:17:32 17° W 05:19:19 23° SW 05:22:36 10° S visible
20 Jan 6.7 03:36:20 13° ESE 03:36:20 13° ESE 03:36:58 10° ESE visible
20 Jan 5.5 05:11:58 14° WSW 05:12:45 15° SW 05:15:10 10° SSW visible
21 Jan 6.9 03:30:41 10° SE 03:30:41 10° SE 03:30:46 10° SE visible
